星链-36481(STARLINK-36481)

导读

STARLINK-36481是美国星链项目的卫星,于2026年1月4日发射。作为星链星座组网卫星,它旨在为全球提供高速低延迟卫星互联网服务,覆盖偏远地区与网络薄弱区域,填补地面通信网络覆盖空白,进一步完善星链全球通信网络布局。

Basic Information
目录编号:
67307
目录名称:
STARLINK-36481
国际标识:
2026-002C
轨道中心:
EARTH
卫星名称:
星链-36481
卫星全名:
星链-36481(STARLINK-36481)
卫星状态:
在轨 (已飞行160 天)
发射日期:
2026-01-04 UTC
国别 :
美国 (US)
星等 :
--
Orbit Information
数据来源 国际轨道数据 AOE轨道数据
星历时间 2026-06-12T14:38:39+0800
1天前
查看轨道信息
2026-06-13T00:00:00+0800
15小时前
查看轨道信息
半长轴 6861.156km 6861.143km
偏心率 0.0002647 0.0000923
轨道倾角 43.000° 43.000°
近地点辐角 270.976° 279.175°
升交点赤经 151.197° 148.994°
平近点角 89.078° 67.182°
近地点 481.202km 482.372km
远地点 484.836km 483.64km
周期 94.266分钟 94.266分钟
每日圈数 15.275903 15.275946
Detailed Information
固有亮度:
5
最大亮度:
2.5
卫星平台:
Starlink V1.0
覆盖范围:
全球
运营商:
太空探索技术公司
运营商所在国:
美国
制造商(研发单位):
太空探索技术公司
制造商所在国:
美国
使用方式:
暂无
Satellite Introduction
Starlink 计划是 SpaceX 推出的全球卫星互联网项目,通过发射低轨道卫星,为全球尤其是偏远地区提供高速、低延迟的互联网服务。自 2019 年起,Starlink 已部署数千颗卫星,旨在缩小全球数字鸿沟,推动互联网普及。该项目还为军事、航空等行业提供通信支持,带来广泛经济效益。
2D Orbit Map
3D Orbit Map
Orbit Altitude Analysis Chart
Orbit Inclination Analysis Chart
Orbit Comprehensive Analysis Chart
View Comprehensive Chart